Location: Newark
(44.2003°N, 3.2583°E)
Time: 11:34:19
(UTC+00:00)

SR - Pass Details

Date: 31 October 2019
Orbit: 573 x 882 km, 66.7° (Epoch: 20 November)

Event Time Altitude Azimuth Distance (km) Brightness Sun altitude
Rises 04:46:05 0° 322° (NW) 3,478 - -17.6°
Reaches altitude 10° 04:48:42 10° 315° (NW) 2,545 - -17.2°
Exits shadow 04:50:50 21° 304° (NW) 1,859 ? -16.8°
Maximum altitude 04:54:13 41° 248° (WSW) 1,257 ? -16.2°
Drops below altitude 10° 04:59:37 10° 180° (S) 2,486 ? -15.2°
Sets 05:02:09 0° 173° (S) 3,388 ? -14.8°
